When you browse on this site, cookies collect data to enhance your experience and personalize the content and advertising you see.
Visit our Privacy Policy to learn more. By continuing to use the site, you agree to this use of cookies and data.
  • In Switzerland
  • List of Countries
  • For 7 days
  • Water Temperature
  • Weather Map
  • Weather Widgets
  • user-avatar
    Login

    Hourly Weather Qala i Naw

    Today, 16 October, Wednesday

    Time Temperature Precipitation Wind Pressure Humidity
    00:00 +8°C° 0 mm 1 mps 683 mmHg 66%
    01:00 +6°C° 0 mm 0 mps 682 mmHg 69%
    02:00 +6°C° 0 mm 0 mps 682 mmHg 70%
    03:00 +5°C° 0 mm 0 mps 682 mmHg 71%
    04:00 +5°C° 0 mm 0 mps 682 mmHg 72%
    05:00 +7°C° 0 mm 0 mps 682 mmHg 63%
    06:00 +8°C° 0 mm 0 mps 683 mmHg 53%
    07:00 +10°C° 0 mm 0 mps 684 mmHg 44%
    08:00 +13°C° 0 mm 1 mps 684 mmHg 39%
    09:00 +16°C° 0 mm 1 mps 684 mmHg 33%
    10:00 +18°C° 0 mm 2 mps 685 mmHg 28%
    11:00 +19°C° 0 mm 2 mps 684 mmHg 26%
    12:00 +21°C° 0 mm 3 mps 684 mmHg 24%
    13:00 +22°C° 0 mm 3 mps 684 mmHg 22%
    14:00 +22°C° 0 mm 3 mps 684 mmHg 22%
    15:00 +21°C° 0 mm 3 mps 684 mmHg 22%
    16:00 +21°C° 0 mm 3 mps 684 mmHg 24%
    17:00 +18°C° 0 mm 2 mps 684 mmHg 32%
    18:00 +15°C° 0 mm 2 mps 683 mmHg 39%
    19:00 +12°C° 0 mm 1 mps 683 mmHg 47%
    20:00 +11°C° 0 mm 1 mps 683 mmHg 49%
    21:00 +10°C° 0 mm 1 mps 683 mmHg 51%
    22:00 +10°C° 0 mm 1 mps 683 mmHg 54%
    23:00 +10°C° 0 mm 1 mps 683 mmHg 54%

    Tomorrow, 17 October, Thursday

    Time Temperature Precipitation Wind Pressure Humidity
    00:00 +8°C° 0 mm 0 mps 683 mmHg 54%
    01:00 +8°C° 0 mm 0 mps 683 mmHg 54%
    02:00 +7°C° 0 mm 0 mps 683 mmHg 57%
    03:00 +7°C° 0 mm 0 mps 683 mmHg 60%
    04:00 +6°C° 0 mm 0 mps 682 mmHg 63%
    05:00 +8°C° 0 mm 0 mps 683 mmHg 54%
    06:00 +10°C° 0 mm 0 mps 684 mmHg 46%
    07:00 +12°C° 0 mm 0 mps 685 mmHg 38%
    08:00 +15°C° 0 mm 1 mps 685 mmHg 33%
    09:00 +18°C° 0 mm 1 mps 686 mmHg 29%
    10:00 +19°C° 0 mm 2 mps 686 mmHg 24%
    11:00 +20°C° 0 mm 3 mps 686 mmHg 22%
    12:00 +21°C° 0 mm 4 mps 685 mmHg 21%
    13:00 +22°C° 0 mm 4 mps 685 mmHg 19%
    14:00 +22°C° 0 mm 4 mps 685 mmHg 19%
    15:00 +22°C° 0 mm 4 mps 685 mmHg 19%
    16:00 +21°C° 0 mm 4 mps 685 mmHg 19%
    17:00 +19°C° 0 mm 4 mps 685 mmHg 25%
    18:00 +16°C° 0 mm 3 mps 685 mmHg 30%
    19:00 +13°C° 0 mm 2 mps 685 mmHg 36%
    20:00 +12°C° 0 mm 2 mps 685 mmHg 40%
    21:00 +12°C° 0 mm 2 mps 685 mmHg 43%
    22:00 +11°C° 0 mm 1 mps 685 mmHg 46%
    23:00 +10°C° 0 mm 1 mps 684 mmHg 52%

    Day after tomorrow, 18 October, Friday

    Time Temperature Precipitation Wind Pressure Humidity
    00:00 +9°C° 0 mm 1 mps 684 mmHg 58%
    01:00 +7°C° 0 mm 0 mps 684 mmHg 64%
    02:00 +7°C° 0 mm 0 mps 683 mmHg 65%
    03:00 +6°C° 0 mm 0 mps 683 mmHg 66%
    04:00 +6°C° 0 mm 0 mps 683 mmHg 67%
    05:00 +7°C° 0 mm 0 mps 683 mmHg 58%
    06:00 +9°C° 0 mm 0 mps 684 mmHg 48%
    07:00 +10°C° 0 mm 0 mps 685 mmHg 39%
    08:00 +14°C° 0 mm 1 mps 685 mmHg 33%
    09:00 +18°C° 0 mm 1 mps 685 mmHg 27%
    10:00 +21°C° 0 mm 1 mps 686 mmHg 21%
    11:00 +21°C° 0 mm 2 mps 685 mmHg 19%
    12:00 +22°C° 0 mm 3 mps 685 mmHg 17%
    13:00 +23°C° 0 mm 4 mps 684 mmHg 15%
    14:00 +23°C° 0 mm 4 mps 684 mmHg 15%
    15:00 +23°C° 0 mm 4 mps 683 mmHg 16%
    16:00 +22°C° 0 mm 4 mps 683 mmHg 16%
    17:00 +19°C° 0 mm 3 mps 683 mmHg 22%
    18:00 +16°C° 0 mm 2 mps 683 mmHg 29%
    19:00 +13°C° 0 mm 2 mps 682 mmHg 36%
    20:00 +12°C° 0 mm 2 mps 682 mmHg 38%
    21:00 +11°C° 0 mm 1 mps 682 mmHg 40%
    22:00 +11°C° 0 mm 1 mps 682 mmHg 43%
    23:00 +10°C° 0 mm 1 mps 682 mmHg 48%

    19 October, Saturday

    Time Temperature Precipitation Wind Pressure Humidity
    00:00 +9°C° 0 mm 1 mps 681 mmHg 54%
    01:00 +7°C° 0 mm 0 mps 681 mmHg 59%
    02:00 +7°C° 0 mm 0 mps 681 mmHg 59%
    03:00 +7°C° 0 mm 0 mps 680 mmHg 59%
    04:00 +6°C° 0 mm 0 mps 680 mmHg 59%
    05:00 +8°C° 0 mm 0 mps 681 mmHg 48%
    06:00 +10°C° 0 mm 0 mps 682 mmHg 38%
    07:00 +11°C° 0 mm 0 mps 682 mmHg 28%
    08:00 +15°C° 0 mm 1 mps 683 mmHg 23%
    09:00 +20°C° 0 mm 1 mps 684 mmHg 18%
    10:00 +23°C° 0 mm 1 mps 684 mmHg 14%
    11:00 +24°C° 0 mm 2 mps 684 mmHg 12%
    12:00 +25°C° 0 mm 2 mps 684 mmHg 11%
    13:00 +27°C° 0 mm 3 mps 684 mmHg 10%
    14:00 +26°C° 0 mm 3 mps 684 mmHg 10%
    15:00 +26°C° 0 mm 3 mps 683 mmHg 11%
    16:00 +25°C° 0 mm 3 mps 683 mmHg 11%
    17:00 +20°C° 0 mm 2 mps 683 mmHg 21%
    18:00 +16°C° 0 mm 1 mps 682 mmHg 30%
    19:00 +12°C° 0 mm 0 mps 682 mmHg 39%
    20:00 +12°C° 0 mm 0 mps 682 mmHg 40%
    21:00 +13°C° 0 mm 1 mps 682 mmHg 40%
    22:00 +13°C° 0 mm 1 mps 683 mmHg 41%
    23:00 +12°C° 0 mm 1 mps 682 mmHg 45%

    20 October, Sunday

    Time Temperature Precipitation Wind Pressure Humidity
    00:00 +10°C° 0 mm 0 mps 682 mmHg 48%
    01:00 +10°C° 0 mm 0 mps 682 mmHg 51%
    02:00 +9°C° 0 mm 0 mps 682 mmHg 52%
    03:00 +9°C° 0 mm 0 mps 682 mmHg 53%
    04:00 +9°C° 0 mm 0 mps 682 mmHg 54%
    05:00 +10°C° 0 mm 0 mps 682 mmHg 43%
    06:00 +12°C° 0 mm 0 mps 683 mmHg 31%
    07:00 +14°C° 0 mm 1 mps 684 mmHg 19%
    08:00 +19°C° 0 mm 1 mps 684 mmHg 16%
    09:00 +22°C° 0 mm 1 mps 685 mmHg 13%
    10:00 +25°C° 0 mm 1 mps 686 mmHg 10%
    11:00 +26°C° 0 mm 2 mps 686 mmHg 10%
    12:00 +27°C° 0 mm 3 mps 685 mmHg 9%
    13:00 +27°C° 0 mm 4 mps 685 mmHg 9%
    14:00 +27°C° 0 mm 4 mps 685 mmHg 9%
    15:00 +26°C° 0 mm 4 mps 685 mmHg 10%
    16:00 +26°C° 0 mm 4 mps 685 mmHg 10%
    17:00 +21°C° 0 mm 3 mps 684 mmHg 16%
    18:00 +17°C° 0 mm 2 mps 684 mmHg 22%
    19:00 +13°C° 0 mm 1 mps 683 mmHg 28%
    20:00 +13°C° 0 mm 1 mps 683 mmHg 28%
    21:00 +12°C° 0 mm 1 mps 683 mmHg 27%
    22:00 +12°C° 0 mm 1 mps 683 mmHg 27%
    23:00 +12°C° 0 mm 1 mps 683 mmHg 31%

    21 October, Monday

    Time Temperature Precipitation Wind Pressure Humidity
    00:00 +11°C° 0 mm 1 mps 683 mmHg 34%
    01:00 +11°C° 0 mm 1 mps 683 mmHg 38%
    02:00 +10°C° 0 mm 0 mps 683 mmHg 42%
    03:00 +9°C° 0 mm 0 mps 683 mmHg 46%
    04:00 +8°C° 0 mm 0 mps 683 mmHg 49%
    05:00 +10°C° 0 mm 0 mps 683 mmHg 41%
    06:00 +11°C° 0 mm 0 mps 684 mmHg 32%
    07:00 +13°C° 0 mm 0 mps 685 mmHg 23%
    08:00 +16°C° 0 mm 1 mps 685 mmHg 20%
    09:00 +20°C° 0 mm 1 mps 686 mmHg 16%
    10:00 +23°C° 0 mm 2 mps 686 mmHg 13%
    11:00 +24°C° 0 mm 3 mps 686 mmHg 13%
    12:00 +25°C° 0 mm 3 mps 685 mmHg 12%
    13:00 +26°C° 0 mm 4 mps 685 mmHg 12%
    14:00 +25°C° 0 mm 4 mps 685 mmHg 12%
    15:00 +25°C° 0 mm 5 mps 684 mmHg 13%
    16:00 +23°C° 0 mm 5 mps 684 mmHg 14%
    17:00 +21°C° 0 mm 4 mps 684 mmHg 16%
    18:00 +20°C° 0 mm 3 mps 684 mmHg 19%
    19:00 +18°C° 0 mm 2 mps 684 mmHg 22%
    20:00 +18°C° 0 mm 1 mps 684 mmHg 23%
    21:00 +16°C° 0 mm 1 mps 684 mmHg 24%
    22:00 +15°C° 0 mm 1 mps 684 mmHg 25%
    23:00 +15°C° 0 mm 1 mps 684 mmHg 25%
    Show more